Current weather by "City, St" or "zip code"  
 

Current Conditions: Bainbridge, Decatur County Industrial Air Park Airport, GA

Fair


46.0 F

Last Updated on Apr 23 2021, 5:55 am EDT
Humidity: 82%
Wind Speed: E 6.9 mph
Barometer 30.14 in
Dewpoint: 41.0 F
Visibility: 10.00 mi
Precip: --
Heat Index: NA
Wind Chill: 42 F
Current conditions at:

Bainbridge, Decatur County Industrial Air Park Airport, GA (KBGE)

Lat: 30.96667 Lon: 84.63333

Local Radar Image active severe weather and emergency alerts image image weather storm and storm spotter reports image weather observation monitoring service image
Local
Radar
Active
Alerts
Storm Reports Obs
Monitoring

Sign-up For Email & Text Message Weather Alert Notification Services



Advertise Here

Observation History for Bainbridge, Decatur County Industrial Air Park Airport, GA


Time Wind
(mph)
Vis
(mi)
Weather Precip (in) Temperature (F) Relative
Humidity
Wind
Chill
(F)
Heat
Index
(F)
Pressure
Air Dwpt altimeter
(in)
sea level
(mb)
Rmks
5:55 am EDT E 6.9 10.00 Fair -- 46.0 41.0 82% 42 NA 30.14 M
5:35 am EDT SE 5.8 10.00 Fair -- 47.0 42.4 83% 44 NA 30.14 M
4:55 am EDT NE 3.5 10.00 Fair -- 47.0 42.4 83% NA NA 30.15 M
3:55 am EDT N 0.0 7.00 Fair -- 48.0 44.4 87% NA NA 30.14 M
2:55 am EDT N 0.0 7.00 Fair with Haze -- 49.0 43.3 81% NA NA 30.15 M
1:55 am EDT N 0.0 7.00 Fair with Haze -- 51.0 44.6 80% NA NA 30.16 M
12:55 am EDT N 0.0 7.00 Fair with Haze -- 52.0 44.4 76% NA NA 30.16 M
11:55 pm EDT N 0.0 10.00 Fair -- 52.0 44.2 75% NA NA 30.17 M
10:55 pm EDT N 0.0 10.00 Fair -- 54.0 38.5 56% NA NA 30.17 M
9:55 pm EDT N 0.0 10.00 Fair -- 56.0 38.8 52% NA NA 30.17 M
8:55 pm EDT N 0.0 10.00 Fair -- 57.0 36.7 46% NA NA 30.14 M
7:55 pm EDT NE 5.8 10.00 Fair -- 63.0 32.2 32% 63 NA 30.13 M
6:55 pm EDT N 6.9 10.00 Fair -- 66.0 30.4 27% NA NA 30.13 M
5:55 pm EDT N 6.9 7.00 Fair -- 67.0 30.4 26% NA NA 30.14 M
4:55 pm EDT N 5.8 10.00 Fair -- 66.0 29.1 25% NA NA 30.14 M
3:55 pm EDT NE 10.4 10.00 Fair -- 66.0 28.6 25% NA NA 30.17 M
2:55 pm EDT NE 12.7 10.00 Fair -- 64.0 30.4 28% NA NA 30.19 M
1:55 pm EDT E 4.6 10.00 Fair -- 62.0 30.0 30% 62 NA 30.21 M
12:55 pm EDT NE 6.9 10.00 Fair -- 60.0 29.5 32% 59 NA 30.23 M
11:55 am EDT NE 10.4 G 18.4 10.00 Fair -- 59.0 29.1 32% 57 NA 30.25 M
10:55 am EDT E 17.3 10.00 Fair -- 56.0 28.9 35% 52 NA 30.25 M
9:55 am EDT E 18.4 G 24.2 10.00 Fair -- 54.0 27.9 37% 49 NA 30.24 M
8:55 am EDT NE 12.7 10.00 Fair -- 50.0 27.9 42% 45 NA 30.22 M
8:35 am EDT NE 15.0 G 20.7 10.00 Fair -- 49.0 27.3 43% 43 NA 30.21 M

Regional Weather Observation


Blakely, Early County Airport, GA (KBIJ)

Partly Cloudy
43.0 F

Bainbridge, Decatur County Industrial Air Park Airport, GA (KBGE)

Fair
46.0 F

Camilla-Mitchell County Airport, GA (KCXU)

Fair
47.0 F

Southwest Georgia Regional Airport, GA (KABY)

Fair
45.0 F

Dothan, Dothan Regional Airport, AL (KDHN)

Overcast
52.0 F

Marianna Municipal Airport, FL (KMAI)

Fair
50.0 F

Advertise Here


Advertise Here